Погода Викулово

Погода Викулово : погода сейчас, прогноз погоды и архив. Всё, что Вы хотите узнать о погоде Викулово!

Поиск расширенной информации на нашем сайте:

Другие новости

Новости СМИ2

Главная страница сайта

Новости сайта

03.07.2017

Напоминаем, что на нашем специализированном сайте Метеоцентр.Азия вы можете получить высокодетализированные автоматические прогнозы погоды по пунктам России, СНГ и мира в авиационном формате (включающие направление и скорость ветра, видимость, явления погоды, количество и форму облачности, нижнюю и верхнюю границу облачности).


Погода Викулово - сегодня

Время (UTC), дата Ветер
(°,м/с) 
Видим.   Явления Облачность Т
(°С)
Тd
(°С)
f(%) Тe
(°С)
Pmin
(гПа)
dP
(гПа)
Po
(мм)
O2
(г/м3)
Тmin Tmax R s Состояние
почвы
21 15.08.18 120 (ЮВ) 20000 м    8/8 600 м 
[Sc]
+17.2 +14.7 85 +27  1005.5  -0.4  747  280           
00 16.08.18 200 (Ю) 20000 м    8/8 600 м 
[Sc]
+16.4 +14.5 89 +25  1006.4  0.8  748  281           
03 16.08.18 220 (ЮЗ) 20000 м    9/4 600 м средняя 
[Sc|Ac As]
+17.7 +15 84 +28  1007.2  0.9  749  280  +16.2       
06 16.08.18 200 (Ю) 10 км    9/9 600 м 
[Sc]
+20.2 +14 68 +27  1008.1  0.9  749  278           
09 16.08.18 200 (Ю) 20000 м    8/6 600 м кучево-дожд., верхняя 
[Cb calv|Ci fib]
+22.7 +13.6 56 +29  1008.7  0.6  750  276           
12 16.08.18 190 (Ю) 20000 м    5/5 600 м кучево-дожд. 
[Cb calv]
+22.7 +12.8 54 +28  1009.2  0.5  750  277           
15 16.08.18 320 (СЗ) 20000 м  в посл. час ливневой дождь  10/10 600 м кучево-дожд. 
[Cb calv]
+18 +16 88 +29  1010.1  0.7  751  280    +23.2  0.4     
18 16.08.18 290 (З) 20000 м  {ливн. осадки}  10/10 600 м кучево-дожд. 
[Cb calv]
+16.6 +15 90 +26  1010.8  0.6  751  282           
21 16.08.18 290 (З) 20000 м    3/3 600 м 
[Sc]
+15.2 +13.7 91 +22  1010.7  0.1  751  284           
00 17.08.18 240 (ЮЗ) 1000 м  туман  ?/?  
+13.3 +12.3 94 +19  1010.8  0.1  751  286           
03 17.08.18 190 (Ю) 0500 м  туман  ?/?  
+14.5 +13.7 95 +22  1010.7  751  285  +13.2         
06 17.08.18 160 (Ю) 10 км  слаб. дождь{туман}  10/8 600 м средняя 
[Cu Sc|Ac As]
+17.2 +15.2 88 +27  1009.8  -0.8  751  281           
09 17.08.18 180 (Ю) 20000 м  {дождь}  9/9 600 м кучево-дожд. 
[Cb calv]
+21.2 +12.8 59 +26  1007.5  -2.2  749  278           
12 17.08.18 190 (Ю) 20000 м  {дождь}  9/3 600 м кучево-дожд., средняя, верхняя 
[Cb calv|Ac trans|Ci fib]
+21.5 +14.2 63 +29  1005.5  -1.9  747  276           
15 17.08.18 210 (ЮЗ) 4000 м  гроза без осадков{ливн. осадки}  9/9 600 м кучево-дожд. 
[Cb cap]
+18.3 +15.7 85 +29  1004.9  -0.7  747  279    +21.9     
18 17.08.18 260 (З) 10 км  {гроза, ливн. осадки}  9/9 600 м кучево-дожд. 
[Cb calv]
+16.3 +14.9 91 +26  1005.4  0.5  747  281           
21 17.08.18 260 (З) 10 км    10/10 600 м кучево-дожд. 
[Cb calv]
+15.3 +12.8 85 +20  1005.6  0.1  747  283           
00 18.08.18 250 (З) 20000 м    10/10 600 м 
[Sc]
+14 +11.9 87 +18  1006.5  0.9  748  284           
03 18.08.18 270 (З) 5-10{10}  4000 м  слаб. дождь  10/10 600 м 
[Sc]
+13.1 +10.4 84 +14  1007.3  0.7  749  286  +13.1    0.0     
15 18.08.18 280 (З) 3{10}  4000 м  слаб. морось  10/10 300 м 
[St]
+13.3 +11.7 90 +16  1010.1  751  286    +16  0.1     
21 18.08.18 330 (СЗ) 10 км  {дождь}  10/10 300 м 
[Frnb]
+11.8 +9.9 88 +12  1012.3  0.6  752  289           
00 19.08.18 340 (С) 20000 м  {дождь}  10/10 600 м 
[Sc]
+10.8 +8.9 88 +10  1013.7  1.4  753  290           
03 19.08.18 340 (С) 20000 м    10/10 600 м 
[Sc]
+10.9 +8.9 87 +10  1014.7  754  291  +10    0.6     
06 19.08.18 360 (С) 20000 м    10/10 600 м 
[Sc]
+13.3 +8.9 75 +13  1014.6  754  288           
09 19.08.18 020 (С) 20000 м    10/10 600 м 
[Sc]
+15.1 +8.6 65 +15  1014.8  0.2  754  286           
Время (UTC), дата Ветер
(°,м/с) 
Видим.   Явления Облачность Т
(°С)
Тd
(°С)
f(%) Тe
(°С)
Pmin
(гПа)
dP
(гПа)
Po
(мм)
O2
(г/м3)
Тmin Tmax R s Состояние
почвы

Для получения пояснительной информации подведите курсор к названию столбца.

ПОГОДА Викулово - архив

Всё, что Вы хотите узнать о погоде Викулово - удобно и подробно!

Выберите нужную дату (начиная с 1 января 2015* года) и нажмите кнопку "Найти".
Будут отображены архивные сводки погоды по пункту Викулово, начиная с указанной даты.


Отображать данные в формате CSV (для использования в таблицах Excel)


Внимание! Наш архив погоды предназначен исключительно для личного некоммерческого использования в познавательных целях. Если Вам необходимы официальные справки о состоянии погоды (для производственных, юридических, коммерческих и т.п. целей), обращайтесь в органы Росгидромета.

*Примечание: данная дата относится к архиву по метеостанциям СССР (Россия, СНГ, Балтия).
Архив по метеостанциям Зарубежной Европы и Азии (кроме Китая) хранится 10 дней, по другим регионам земного шара (Китай, Африка, Америка, Австралия, Океания) - 1 день.

Викулово - район местоположения метеостанции


Название, широта, долгота, высота метеостанции:
Викулово 56.8°ш. 70.6°д. 78 м над ур. моря [Российская Федерация]

Дополнительная информация

В oтличие oт бoльшинства пoгoдных сайтoв мы публикуем пoдрoбную метеoинфoрмацию в детальнoм прoфессиoнальнoм фoрмате.

Характеристики температуры и влажнoсти вoздуха измеряются на высoте 2 м в тени вдали oт зданий и деревьев.
Скoрoсть ветра измеряется на высoте 10 м (на урoвне рoста челoвека скoрoсть ветра ниже в 1.5-2 раза). Если метеoстанция нахoдится в гoрoде или в лесу, тo скoрoсть ветра занижена на 2-4 м/с пo сравнению с oткрытым местoм. Скoрoсть ветра над акватoриями крупных рек и oзёр, а также на вершинах хoлмoв на 2-5 м/с выше, чем в oбычных услoвиях.
Атмoсфернoе давление в разных тoчках местнoсти мoжет значительнo oтличаться oт давления на метеoстанции, в зависимoсти oт услoвий рельефа (при пoдъёме на 10 м давление пoнижается примернo на 1 мм рт.ст.).